Location: Hains Lake
(37.8540°N, 99.8578°W)
Time: 21:29:30
(UTC+00:00)

ISS - Pass Details

Date: 13 March 2021
Orbit: 418 x 422 km, 51.6° (Epoch: 16 April)

Event Time Altitude Azimuth Distance (km) Brightness Sun altitude
Exits shadow 11:49:06 26° 260° (W) 870 -2.8 -13.4°
Maximum altitude 11:50:03 31° 227° (SW) 765 -2.9 -13.3°
Drops below altitude 10° 11:53:02 10° 163° (SSE) 1,487 -0.8 -12.7°
Sets 11:55:16 0° 153° (SSE) 2,346 0.3 -12.2°
